[[{"header":{"parameterUnit":"m.s-1","parameterCategory":1,"la1":30.2991,"la2":30.254,"lo1":-89.0895,"lo2":-89.0444,"dy":0.0017,"dx":0.0017,"nx":28,"ny":28,"refTime":"2025-08-03T09:00:00:Z","depth":0,"parameterNumber":2,"parameterNumberName":"U-component_of_WINDS"},"data":[0,0,0,0,0,0,0,0,0,0,0,0,0,0,0,0,0,0,0,0,0,0,0,0,0,0,0,0,0,0,0,0,0,0,0,0,0,0,0,0,0,0,0,0,0,0,0,0,0,0,0,0,0,0,0,0,0,0,0.8045,0.8045,0,0.8018,0.8018,0.8017,0.7971,0.797,0.7969,0.7969,0.7941,0.7941,0.7941,0,0,0,0,0,0,0,0,0,0,0,0,0,0.8055,0.8055,0.8045,0.8045,0.8044,0.8018,0.8018,0.8017,0.7971,0.797,0.7969,0.7968,0.7941,0.7941,0.7941,0,0,0,0,0,0,0,0,0,0,0,0,0,0.8042,0.8055,0.8045,0.8018,0.8016,0.8018,0.8018,0.8017,0.7972,0.797,0.7969,0.7968,0.7941,0.7941,0.7941,0.7968,0,0,0.7941,0.7941,0,0,0,0,0,0,0,0,0.8042,0.8041,0.8023,0.802,0.8017,0.7997,0.8011,0.8001,0.7972,0.7988,0.7969,0.7967,0.7961,0.7959,0.7957,0.7966,0.7965,0.7941,0.7941,0.7942,0.7942,0,0,0,0,0,0,0,0.8043,0.8042,0.8034,0.8022,0.8019,0.8007,0.8004,0.8009,0.7982,0.7987,0.7983,0.7981,0.7959,0.7957,0.7956,0.7965,0.7941,0.7942,0.7942,0.7942,0.7992,0.7993,0,0,0,0,0,0,0.8048,0.8043,0.8035,0.8034,0.8027,0.8008,0.8004,0.8005,0.7982,0.7977,0.7982,0.7979,0.7957,0.7956,0.7955,0.7982,0.7942,0.7942,0.7942,0.7991,0.7992,0.7993,0,0,0,0,0,0,0.8049,0.8048,0.8036,0.8037,0.8035,0.8009,0.801,0.8005,0.8003,0.7978,0.7973,0.7985,0.7956,0.7954,0.7964,0.798,0.7942,0.7942,0.7989,0.7991,0.7993,0.8038,0,0,0,0,0,0,0.8049,0.8049,0.8059,0.8038,0.8035,0.8047,0.8011,0.8005,0.8003,0.7998,0.798,0.7975,0.7955,0.7964,0.7964,0.798,0.7942,0.7987,0.799,0.7992,0.8035,0.8042,0.8047,0,0,0,0,0,0.805,0.8074,0.806,0.8059,0.8048,0.8048,0.8046,0.8023,0.8005,0.8014,0.7998,0.7976,0.7979,0.7966,0.7965,0.7981,0.7986,0.7989,0.7992,0.8033,0.804,0.8047,0,0,0,0,0,0,0.8098,0.807,0.8055,0.8073,0.8063,0.804,0.8052,0.8032,0.8027,0.8023,0.7994,0.799,0.8003,0.7993,0.7979,0.8004,0.7979,0.7982,0.801,0.8017,0.8023,0.8024,0.7942,0,0,0,0,0,0.811,0.8113,0.8089,0.8107,0.8103,0.8078,0.8078,0.806,0.8049,0.8045,0.8029,0.8019,0.8017,0.8017,0.8014,0.8034,0.8028,0.8045,0.805,0.8055,0.8058,0.8065,0.8071,0.8003,0.8003,0.8003,0,0,0.8136,0.8122,0.8125,0.8116,0.8107,0.8109,0.8075,0.808,0.8081,0.8045,0.8053,0.8041,0.8028,0.8042,0.8047,0.8034,0.8075,0.8059,0.8063,0.8063,0.8068,0.8075,0.808,0.8005,0.8004,0.8004,0,0,0.8184,0.8175,0.8187,0.8178,0.8164,0.8147,0.815,0.813,0.812,0.8127,0.81,0.8101,0.8099,0.809,0.8085,0.8127,0.8106,0.8128,0.8158,0.8165,0.817,0.8175,0.8188,0.8193,0.813,0.8131,0.8131,0,0.8219,0.8222,0.8196,0.8202,0.8198,0.8165,0.8176,0.8169,0.8154,0.8152,0.8137,0.8133,0.8122,0.8132,0.8142,0.814,0.8141,0.8129,0.8172,0.8176,0.818,0.8192,0.8197,0.8133,0.8133,0.8132,0.8132,0,0.8263,0.8266,0.8277,0.8263,0.8261,0.827,0.8244,0.8245,0.8227,0.8211,0.8218,0.8203,0.8195,0.8197,0.818,0.8204,0.8196,0.8177,0.8151,0.8189,0.82,0.8204,0.8137,0.8136,0.8135,0.8134,0,0,0.8341,0.8311,0.8316,0.8308,0.8289,0.829,0.8297,0.8289,0.8288,0.828,0.8283,0.8282,0.8263,0.8258,0.824,0.8246,0.8278,0.8226,0.8225,0.8234,0.83,0.8313,0.8319,0.8264,0.8265,0.8265,0.83,0,0.8384,0.8393,0.8369,0.8384,0.8385,0.8353,0.8358,0.8346,0.8332,0.833,0.8313,0.8312,0.8289,0.8285,0.829,0.8273,0.829,0.827,0.8265,0.8265,0.8268,0.8325,0.8339,0.8372,0.8304,0.8305,0.8306,0,0.8435,0.8427,0.8442,0.8419,0.8419,0.8424,0.8414,0.8413,0.8398,0.8387,0.838,0.8358,0.8362,0.8338,0.8341,0.8328,0.8324,0.8315,0.8316,0.8313,0.8287,0.8321,0.8383,0.8387,0.8312,0.8312,0.8311,0,0.8487,0.8481,0.8488,0.8482,0.8457,0.8461,0.8451,0.8435,0.8431,0.8422,0.8419,0.8411,0.8406,0.84,0.8376,0.8361,0.8381,0.8356,0.8371,0.8371,0.8375,0.8375,0.8435,0.8376,0.8376,0.8376,0.8376,0,0.8536,0.8546,0.851,0.8515,0.8524,0.8496,0.8506,0.8493,0.8478,0.8479,0.8451,0.8452,0.8421,0.8418,0.84,0.8404,0.8403,0.8392,0.8387,0.8394,0.8395,0.839,0.8386,0.8378,0.8377,0.8377,0.8377,0,0.8595,0.8573,0.8578,0.8553,0.8547,0.8555,0.8533,0.8535,0.8519,0.8519,0.8518,0.8491,0.8486,0.8462,0.8451,0.8439,0.8448,0.8439,0.8453,0.8449,0.8465,0.8463,0.8522,0.8528,0.8468,0.8468,0.8469,0,0.8627,0.8634,0.8609,0.8607,0.8598,0.8595,0.8591,0.8564,0.856,0.8542,0.8546,0.8539,0.8531,0.8524,0.8503,0.8495,0.8484,0.8505,0.8482,0.8488,0.8481,0.848,0.848,0.851,0.851,0.8511,0.8512,0,0.8685,0.8673,0.8668,0.8658,0.8653,0.8644,0.8633,0.8633,0.8602,0.8599,0.8593,0.8587,0.8576,0.8568,0.8555,0.8544,0.8522,0.8519,0.8522,0.8528,0.8534,0.8529,0.8464,0.8518,0.8517,0.8517,0.8516,0.8516,0.873,0.8734,0.8716,0.871,0.8699,0.8689,0.8689,0.8672,0.8667,0.8655,0.8639,0.8634,0.8617,0.8598,0.8588,0.8584,0.8572,0.8576,0.8577,0.8578,0.858,0.8537,0.8581,0.8581,0.8581,0.8581,0.8581,0,0.8785,0.8772,0.8767,0.8752,0.8747,0.8727,0.8714,0.871,0.8707,0.8693,0.8686,0.8678,0.8669,0.8648,0.8637,0.8637,0.8627,0.8635,0.8634,0.8631,0.8593,0.859,0.8644,0.8644,0.8643,0.8643,0.8643,0.8643,0.8813,0.8816,0.8802,0.8799,0.8786,0.8781,0.8774,0.8764,0.8753,0.8745,0.8738,0.8724,0.8706,0.8694,0.8685,0.8678,0.8675,0.8686,0.8676,0.864,0.8634,0.8628,0.8626,0.8686,0.8686,0.8715,0.8715,0.8715]},{"header":{"parameterUnit":"m.s-1","parameterCategory":1,"la1":30.2991,"la2":30.254,"lo1":-89.0895,"lo2":-89.0444,"dy":0.0017,"dx":0.0017,"nx":28,"ny":28,"refTime":"2025-08-03T09:00:00:Z","depth":0,"parameterNumber":3,"parameterNumberName":"V-component_of_WINDS"},"data":[0,0,0,0,0,0,0,0,0,0,0,0,0,0,0,0,0,0,0,0,0,0,0,0,0,0,0,0,0,0,0,0,0,0,0,0,0,0,0,0,0,0,0,0,0,0,0,0,0,0,0,0,0,0,0,0,0,0,3.3358,3.3359,0,3.3421,3.3422,3.3423,3.3363,3.336,3.3358,3.3356,3.3417,3.3421,3.3425,0,0,0,0,0,0,0,0,0,0,0,0,0,3.3182,3.3185,3.3358,3.3359,3.3359,3.3421,3.3422,3.3423,3.3363,3.336,3.3357,3.3355,3.3416,3.3421,3.3425,0,0,0,0,0,0,0,0,0,0,0,0,0,3.3253,3.3186,3.3358,3.3337,3.3336,3.3421,3.3422,3.3423,3.3364,3.336,3.3356,3.3353,3.3415,3.342,3.3426,3.3534,0,0,3.3444,3.3446,0,0,0,0,0,0,0,0,3.3249,3.3259,3.3339,3.3339,3.3337,3.338,3.3382,3.346,3.3365,3.3353,3.3356,3.3351,3.3408,3.3414,3.3434,3.3536,3.3539,3.3444,3.3448,3.345,3.3452,0,0,0,0,0,0,0,3.3244,3.3256,3.3383,3.3341,3.3339,3.3324,3.333,3.3397,3.34,3.3354,3.335,3.3358,3.3407,3.3428,3.3435,3.354,3.3444,3.3449,3.3453,3.3455,3.3733,3.3737,0,0,0,0,0,0,3.3242,3.3253,3.3381,3.3385,3.3284,3.333,3.3337,3.337,3.3399,3.34,3.3361,3.3355,3.342,3.3428,3.3437,3.3563,3.345,3.3456,3.3459,3.3729,3.3734,3.3738,0,0,0,0,0,0,3.3238,3.3254,3.3378,3.3318,3.3332,3.3337,3.3375,3.3373,3.3395,3.3404,3.3404,3.3383,3.3417,3.3428,3.351,3.3564,3.3458,3.3464,3.3724,3.3731,3.3736,3.3817,0,0,0,0,0,0,3.3234,3.3253,3.3295,3.3319,3.3336,3.3451,3.3378,3.3377,3.3405,3.3398,3.3425,3.3426,3.3415,3.3501,3.3516,3.357,3.3468,3.372,3.3727,3.3734,3.381,3.3825,3.3838,0,0,0,0,0,3.3227,3.3315,3.3297,3.3313,3.3388,3.3455,3.3464,3.3452,3.341,3.3451,3.3457,3.3425,3.3557,3.351,3.3526,3.3583,3.3716,3.3725,3.3733,3.3803,3.3822,3.3838,0,0,0,0,0,0,3.3295,3.3317,3.3298,3.3396,3.3424,3.3444,3.3496,3.3472,3.3512,3.3503,3.3485,3.3492,3.3578,3.3589,3.3537,3.3688,3.3629,3.3642,3.3677,3.3695,3.3709,3.3703,3.3473,0,0,0,0,0,3.3322,3.3375,3.3391,3.3476,3.3491,3.3492,3.352,3.3508,3.3536,3.3547,3.3559,3.3587,3.3634,3.3666,3.371,3.3812,3.3816,3.3859,3.3873,3.3885,3.3895,3.3948,3.3967,3.3767,3.3767,3.3767,0,0,3.3376,3.3395,3.343,3.349,3.351,3.3565,3.3502,3.3562,3.3602,3.3556,3.3633,3.3644,3.3673,3.3765,3.3806,3.3777,3.3951,3.3896,3.3905,3.3909,3.3959,3.3978,3.3994,3.3773,3.3772,3.3771,0,0,3.3503,3.3524,3.3596,3.3618,3.365,3.365,3.3667,3.3692,3.3697,3.3775,3.3741,3.3788,3.3871,3.3893,3.3915,3.4051,3.4022,3.4066,3.414,3.4192,3.4208,3.4221,3.4268,3.4285,3.4077,3.4077,3.4077,0,3.3566,3.3648,3.3636,3.3698,3.3725,3.3688,3.376,3.3782,3.3826,3.3845,3.3813,3.3915,3.3932,3.4028,3.4061,3.4081,3.4099,3.4061,3.4207,3.422,3.4233,3.4277,3.4295,3.4082,3.4081,3.4081,3.408,0,3.3723,3.378,3.3835,3.3879,3.3913,3.398,3.3976,3.4012,3.3997,3.4,3.4079,3.4099,3.4146,3.4169,3.4155,3.4263,3.4243,3.421,3.4149,3.4257,3.4298,3.4315,3.4089,3.4087,3.4086,3.4084,0,0,3.3892,3.393,3.395,3.3969,3.4003,3.4046,3.4111,3.4158,3.4188,3.4221,3.4273,3.4345,3.4313,3.4338,3.4327,3.4373,3.4478,3.4333,3.4334,3.4357,3.4595,3.4618,3.4638,3.446,3.4463,3.4466,3.4591,0,3.4018,3.4132,3.4123,3.423,3.4281,3.4248,3.4304,3.433,3.4335,3.4379,3.4384,3.4434,3.439,3.4405,3.4449,3.4456,3.4525,3.4447,3.4507,3.4509,3.4497,3.466,3.4685,3.4802,3.4608,3.461,3.4612,0,3.4179,3.4218,3.4331,3.4356,3.4377,3.4428,3.447,3.4513,3.4542,3.4542,3.4571,3.4552,3.4617,3.4558,3.4646,3.4593,3.4617,3.4625,3.4629,3.4631,3.4565,3.4664,3.4839,3.4856,3.4638,3.4636,3.4634,0,3.4288,3.4369,3.4446,3.4464,3.4496,3.4532,3.4547,3.4572,3.4601,3.4638,3.4656,3.47,3.4724,3.4758,3.4751,3.4709,3.484,3.4781,3.484,3.484,3.4866,3.4864,3.5045,3.4887,3.4887,3.4887,3.4886,0,3.4428,3.4497,3.4495,3.4542,3.4619,3.4608,3.4684,3.4694,3.4717,3.4765,3.4739,3.4784,3.4774,3.4819,3.4814,3.4886,3.4898,3.4899,3.4896,3.4899,3.4899,3.4913,3.4903,3.4891,3.489,3.4889,3.4889,0,3.456,3.4562,3.4644,3.4668,3.4675,3.473,3.475,3.4794,3.4798,3.4859,3.4872,3.4878,3.4929,3.4927,3.4985,3.4982,3.507,3.5059,3.506,3.5057,3.5115,3.5109,3.5309,3.5334,3.5162,3.5164,3.5165,0,3.4648,3.4701,3.4731,3.4761,3.4779,3.4828,3.4858,3.485,3.4881,3.4918,3.4958,3.5007,3.5045,3.5129,3.5137,3.5182,3.517,3.5237,3.5176,3.5178,3.5168,3.5164,3.5168,3.5248,3.525,3.5252,3.5253,0,3.4802,3.4801,3.4845,3.4889,3.4925,3.496,3.4991,3.5018,3.5013,3.505,3.5102,3.5133,3.5192,3.5241,3.5283,3.5297,3.5274,3.5273,3.5288,3.5291,3.5288,3.5288,3.509,3.5267,3.5266,3.5265,3.5264,3.5263,3.4913,3.4958,3.4986,3.5036,3.5059,3.5089,3.5131,3.5141,3.5185,3.5233,3.5226,3.5285,3.5312,3.5367,3.5385,3.543,3.5405,3.5429,3.5434,3.5439,3.5444,3.5284,3.5438,3.5437,3.5437,3.5437,3.5436,0,3.5064,3.5081,3.5127,3.5172,3.5211,3.5188,3.5222,3.5255,3.5308,3.5335,3.5374,3.5435,3.5482,3.5495,3.554,3.5573,3.5564,3.5585,3.5581,3.5584,3.5465,3.5446,3.5592,3.5592,3.5592,3.5592,3.5592,3.5592,3.5147,3.5221,3.5223,3.5308,3.5324,3.5382,3.5403,3.543,3.5452,3.5521,3.556,3.5569,3.559,3.5637,3.5679,3.5682,3.5698,3.5724,3.5722,3.5609,3.5593,3.5578,3.556,3.5728,3.5728,3.5837,3.5838,3.5839]}]]